This is the latest recevied weather packets stored in our database for station/object WO5CID. If no packets are shown the sender has not sent any weather packets the latest 10 day(s).
| Time | Temp. | Humidity | Pressure | Rain* | Wind** | Luminosity | Snow |
|---|---|---|---|---|---|---|---|
| 1777647857 | 28.33° C | 53% | 1012.7 hPa | 0 mm | - | 701 W/m² | - |
| 1777647554 | 28.33° C | 51% | 1012.5 hPa | 0 mm | - | 530 W/m² | - |
| 1777647250 | 27.78° C | 56% | 1012.6 hPa | 0 mm | - | 844 W/m² | - |
| 1777646948 | 27.22° C | 59% | 1012.5 hPa | 0 mm | - | 453 W/m² | - |
| 1777646643 | 27.22° C | 59% | 1012.7 hPa | 0 mm | - | 302 W/m² | - |
| 1777646340 | 26.67° C | 60% | 1012.4 hPa | 0 mm | - | 650 W/m² | - |
| 1777646036 | 26.11° C | 63% | 1012.7 hPa | 0 mm | - | 551 W/m² | - |
| 1777645732 | 26.11° C | 63% | 1012.7 hPa | 0 mm | - | 291 W/m² | - |
| 1777645429 | 26.11° C | 64% | 1012.6 hPa | 0 mm | - | 376 W/m² | - |
| 1777645125 | 25.56° C | 66% | 1013.1 hPa | 0 mm | - | 845 W/m² | - |
| 1777644821 | 25.56° C | 66% | 1012.7 hPa | 0 mm | - | 304 W/m² | - |
| 1777644519 | 25° C | 70% | 1012.7 hPa | 0 mm | - | 463 W/m² | - |
| 1777644215 | 25° C | 70% | 1012.6 hPa | 0 mm | - | 277 W/m² | - |
| 1777643911 | 24.44° C | 70% | 1012.5 hPa | 0 mm | - | 324 W/m² | - |
| 1777643610 | 24.44° C | 73% | 1012.5 hPa | 0 mm | - | 207 W/m² | - |
| 1777643307 | 23.89° C | 75% | 1012.4 hPa | 0 mm | - | 223 W/m² | - |
| 1777643003 | 23.33° C | 76% | 1012.3 hPa | 0 mm | - | 267 W/m² | - |
| 1777642699 | 22.78° C | 79% | 1012.2 hPa | 0 mm | - | 190 W/m² | - |
| 1777642397 | 22.78° C | 79% | 1012.4 hPa | 0 mm | - | 134 W/m² | - |
| 1777642093 | 22.78° C | 80% | 1012.3 hPa | 0 mm | - | 153 W/m² | - |
| 1777641789 | 22.78° C | 78% | 1011.8 hPa | 0 mm | - | 120 W/m² | - |
| 1777641483 | 22.78° C | 79% | 1012.1 hPa | 0 mm | - | 109 W/m² | - |
| 1777641179 | 22.78° C | 79% | 1011.9 hPa | 0 mm | - | 136 W/m² | - |
| 1777640875 | 22.78° C | 79% | 1012.1 hPa | 0 mm | - | 135 W/m² | - |
| 1777640573 | 22.78° C | 79% | 1011.9 hPa | 0 mm | - | 130 W/m² | - |
* Rain latest hour (hover to see other rain measurements)
** Current wind speed in m/s (hover to see current wind gust speed)